Home   Weather   Le Havre   Past weeks

Flag for France Past Weather in Le Havre, Upper Normandy, France — Yesterday and Last 2 Weeks

Now
61 °F

Fog.


Feels Like: 61 °F
Forecast: 56 / 68 °F
Wind: 3 mph from Southwest

Location: La Heve

Current Time: Aug 31, 2016 at 8:30:28 AM

Latest Report: Aug 31, 2016 at 8:00 AM


Visibility: 3 mi

Pressure: 30.15 "Hg

Humidity: 94%

Dew Point: 59 °F

Location of Le HavreLocation

Past Weather in Le Havre — Graph

°F

Le Havre Temperature Yesterday

Maximum temperature yesterday: 70 °F (at 12:30 PM)
Minimum temperature yesterday: 61 °F (at 11:30 PM)
Average temperature yesterday: 67 °F

High & Low Weather Summary for the Past Weeks

 TemperatureHumidityPressure
High91 °F (Aug 23, 5:00 PM)100% (Aug 17, 7:00 AM)30.33 "Hg (Aug 17, 7:00 AM)
Low55 °F (Aug 16, 7:00 AM)28% (Aug 23, 5:00 PM)29.74 "Hg (Aug 19, 10:30 AM)
Average67 °F77%30.01 "Hg
* Reported Aug 16 7:00 AM — Aug 31 7:30 AM, Le Havre, Weather by CustomWeather, © 2016

Note: Actual official high and low records may vary slightly from our data, if they occured in-between our weather recording intervals... More about our weather records

Advertising

Le Havre Weather History for the Previous 24 Hours

Scroll right to see more
 ConditionsComfort  
Time TempWeatherWind HumidityBarometerVisibility
7:30 AM
Wed, Aug 31
55 °FClear.3 mph100%30.15 "Hg4 mi
7:00 AM57 °FClear.No wind88%30.15 "Hg5 mi
6:30 AM55 °FClear.No wind94%30.15 "Hg4 mi
6:00 AM55 °FClear.No wind88%30.12 "Hg4 mi
5:30 AM57 °FClear.2 mph82%30.12 "Hg6 mi
5:00 AM59 °FClear.2 mph88%30.12 "Hg10 mi
4:30 AM57 °FClear.2 mph82%30.15 "Hg10 mi
4:00 AM57 °FClear.2 mph88%30.15 "Hg10 mi
3:30 AM57 °FClear.1 mph88%30.15 "Hg10 mi
3:00 AM59 °FClear.No wind82%30.15 "Hg10 mi
2:30 AM61 °FClear.2 mph83%30.15 "Hg10 mi
2:00 AM61 °FClear.5 mph83%30.15 "Hg10 mi
1:30 AM61 °FClear.6 mph83%30.18 "Hg10 mi
1:00 AM61 °FClear.7 mph83%30.18 "Hg10 mi
12:30 AM61 °FClear.7 mph83%30.18 "Hg10 mi
12:00 AM61 °FClear.7 mph83%30.18 "Hg10 mi
11:30 PM
Tue, Aug 30
61 °FClear.7 mph83%30.18 "Hg10 mi
11:00 PM63 °FClear.8 mph77%30.18 "Hg10 mi
10:30 PM63 °FClear.10 mph77%30.18 "Hg10 mi
10:00 PM63 °FClear.7 mph77%30.18 "Hg10 mi
9:30 PM63 °FSunny.7 mph77%30.18 "Hg10 mi
9:00 PM64 °FSunny.8 mph73%30.18 "Hg10 mi
8:30 PM66 °FSunny.8 mph64%30.18 "Hg10 mi
8:00 PM68 °FSunny.9 mph64%30.18 "Hg10 mi
7:30 PM68 °FSunny.9 mph73%30.18 "Hg10 mi
7:00 PM70 °FSunny.9 mph64%30.21 "Hg10 mi
6:30 PM70 °FSunny.9 mph69%30.21 "Hg10 mi
6:00 PM70 °FSunny.12 mph69%30.21 "Hg10 mi
5:30 PM68 °FSunny.13 mph73%30.21 "Hg10 mi
5:00 PM68 °FSunny.14 mph78%30.21 "Hg10 mi
4:30 PM68 °FSunny.13 mph73%30.24 "Hg10 mi
4:00 PM68 °FClear.13 mph73%30.24 "Hg6 mi
3:30 PM68 °FClear.12 mph78%30.24 "Hg6 mi
2:30 PM68 °FSunny.12 mph73%30.27 "Hg3 mi
2:00 PM68 °FSunny.9 mph69%30.27 "HgN/A
1:30 PM66 °FMild.9 mph78%30.27 "Hg6 mi
1:00 PM68 °FMild.N/A73%30.27 "Hg4 mi
12:30 PM70 °FMild.N/A69%30.30 "HgN/A
12:00 PM68 °FMild.7 mph64%30.30 "HgN/A
Weather by CustomWeather, © 2016

See weather overviewHow to use our weather pages